{"data":{"norad_id":66614,"intl_designator":"2025-270AC","name":"STARLINK-36040","alt_names":[],"object_type":"PAYLOAD","status":"ACTIVE","operator":null,"country":"US","launch_date":"2025-11-22","launch_site_code":"AFETR","launch_vehicle":null,"mission":null,"orbit_class":"UNKNOWN","rcs_meters":null,"size_class":null,"mass_kg":null,"dimensions":null,"purposes":["comms"],"wikipedia_slug":null,"has_3d_model":false,"image_url":null,"decayed_at":null,"tle_current":{"epoch":"2026-05-24T22:36:25.216128Z","epoch_age_seconds":90797,"freshness":"FRESH","line1":"1 66614U 25270AC  26144.94195852  .00015484  00000+0  57063-3 0  9994","line2":"2 66614  43.0039 345.8925 0001386 270.6673  89.4020 15.27602973 29207","mean_motion":15.27602973,"eccentricity":0.0001386,"inclination_deg":43.0039,"raan_deg":345.8925,"arg_perigee_deg":270.6673,"mean_anomaly_deg":89.402,"bstar":0.00057063,"rev_number":2920,"period_min":94.265331074346,"perigee_km":482.02935661643,"apogee_km":483.93125833406,"semimajor_km":6861.1173074752,"source":"CELESTRAK","updated_at":"2026-05-25T13:38:21.292936Z"}}}